Regional Weather Roundup
Issued by NWS

Home | Current Version | Previous Version | Graphics & Text | Print | Product List | Glossary On
Versions: 1 2 3 4 5 6 7 8 9 10 11 12 13 14 15 16 17 18 19 20 21 22 23 24 25 26 27 28 29 30 31 32 33 34 35 36 37 38 39 40 41 42 43 44 45 46 47 48 49 50
959
ASUS44 KMEG 280500
RWRTN
TENNESSEE HOURLY STATE WEATHER ROUNDUP
NATIONAL WEATHER SERVICE MEMPHIS TN
1200 AM CDT THU JUL 28 2016

TNZ002-004-019-021-049-052-054-088>092-280600-
WEST TENNESSEE

CITY           SKY/WX    TMP DP  RH WIND       PRES   REMARKS
MEMPHIS INTL   CLOUDY    77  74  90 CALM      29.92S
NWS MEMPHIS      N/A     75 N/A N/A MISG        N/A
JACKSON        CLOUDY    78  76  93 W3        29.94S
DYERSBURG      CLOUDY    77  73  88 CALM      29.94S
UNION CITY     PTCLDY    73  73 100 CALM      29.93F
PARIS          MOCLDY    72  72 100 NE5       29.96S
LEXINGTON      CLOUDY    77  73  88 SW5       29.95S
$$

TNZ008-025-027-028-033-062-065-066-280600-
NORTH MIDDLE TENNESSEE

CITY           SKY/WX    TMP DP  RH WIND       PRES   REMARKS
NASHVILLE      MOCLDY    83  70  64 S7        29.96R
CLARKSVILLE    TSTM      72  70  93 NE6       29.98R FOG
COOKEVILLE     PTCLDY    79  73  83 CALM      29.99S
CROSSVILLE     CLOUDY    74  69  85 VRB3      30.07R
$$

TNZ061-075-076-078-094-096-097-280600-
SOUTH MIDDLE TENNESSEE

CITY           SKY/WX    TMP DP  RH WIND       PRES   REMARKS
TULLAHOMA      CLEAR     75  70  83 S9        30.02S
WINCHESTER     MOCLDY    79  70  73 S5        30.02R
MCMINNVILLE    CLEAR     79  72  78 S3        30.01S
COLUMBIA       CLEAR     81  81 100 SW9       29.97R HX  91
SHELBYVILLE    PTCLDY    79  73  83 S6        30.00R
$$

TNZ017-018-042-046-047-280600-
NORTHEAST TENNESSEE

CITY           SKY/WX    TMP DP  RH WIND       PRES   REMARKS
TRI CITIES     TSTM      76  72  87 SW6       30.05R FOG
$$

TNZ012-013-036-069-073-074-280600-
CENTRAL EAST TENNESSEE

CITY           SKY/WX    TMP DP  RH WIND       PRES   REMARKS
KNOXVILLE      CLOUDY    82  71  69 SW8       30.01R
OAK RIDGE      CLOUDY    83  71  67 CALM      30.02R
GATLINBURG     CLOUDY    84  66  54 SW7       30.01R
$$

TNZ083-085-099-280600-
SOUTHEAST TENNESSEE

CITY           SKY/WX    TMP DP  RH WIND       PRES   REMARKS
CHATTANOOGA    CLEAR     80  68  66 S8        30.02R
$$

SKY/WX REPORTED AS FAIR MEANS FEW OR NO CLOUDS BELOW
12 THOUSAND FEET.





USA.gov is the U.S. government's official web portal to all federal, state and local government web resources and services.